Location: Unspecified
(0.0000°N, 0.0000°E)
Time: 23:27:14
(UTC+00:00)

Courier 1B Rocket - Pass Details

Date: 05 October 2020
Orbit: 920 x 1202 km, 28.2° (Epoch: 28 October)

Event Time Altitude Azimuth Distance (km) Brightness Sun altitude
Rises 02:45:54 0° 280° (W) 3,938 - -45.4°
Reaches altitude 10° 02:50:08 10° 301° (WNW) 2,916 - -44.4°
Maximum altitude 02:54:02 15° 335° (NNW) 2,485 - -43.4°
Drops below altitude 10° 02:57:48 10° 9° (N) 2,795 - -42.5°
Exits shadow 03:00:06 - 24° (NNE) 3,269 7.9 -41.9°
Sets 03:01:44 0° 31° (NNE) 3,685 8.3 -41.5°
